DW2485 Weather Reports


time (UTC)temp
C
wind
direction
speed
KPH
gust
KPH
rain 1hr
cm
rain 24hr
cm
rain mn
cm
humidity
%
barometer
mb
20260901143504 26 163 4.8 8.0 0.00 0.00 0.00 90 1016.1
20260901143004 26 136 3.2 4.8 0.00 0.00 0.00 89 1016.0
20260901142005 25 194 3.2 4.8 0.00 0.00 0.00 91 1016.4
20260901141505 25 185 1.6 4.8 0.00 0.00 0.00 93 1016.2
20260901140504 25 279 0.0 3.2 0.00 0.00 0.00 92 1016.5
20260901134004 23 192 1.6 3.2 0.00 0.00 0.00 96 1016.7
20260901133505 23 184 1.6 4.8 0.00 0.00 0.00 96 1016.8
20260901132505 23 77 1.6 3.2 0.00 0.00 0.00 96 1016.7
20260901131505 22 50 0.0 1.6 0.00 0.00 0.00 95 1016.6
20260901131005 21 0 0.0 0.0 0.00 0.00 0.00 95 1016.6
20260901130505 21 0 0.0 0.0 0.00 0.00 0.00 95 1016.7
20260901125506 21 0 0.0 0.0 0.00 0.00 0.00 95 1016.6
20260901124505 21 0 0.0 0.0 0.00 0.00 0.00 95 1016.4
20260901123504 21 0 0.0 0.0 0.00 0.00 0.00 95 1016.4
20260901123005 21 0 0.0 0.0 0.00 0.00 0.00 95 1016.4
20260901122005 21 0 0.0 0.0 0.00 0.00 0.00 95 1016.3
20260901121504 21 0 0.0 0.0 0.00 0.00 0.00 95 1016.4
20260901120004 21 0 0.0 0.0 0.00 0.00 0.00 95 1016.3
20260901115505 21 0 0.0 0.0 0.00 0.00 0.00 95 1016.2
20260901112504 21 0 0.0 0.0 0.00 0.00 0.00 95 1015.7
20260901112004 21 0 0.0 3.2 0.00 0.00 0.00 95 1015.8
20260901111504 21 176 3.2 3.2 0.00 0.00 0.00 95 1015.9
20260901111004 21 176 3.2 3.2 0.00 0.00 0.00 95 1015.8
20260901104504 21 243 1.6 3.2 0.00 0.00 0.00 95 1015.5
20260901103004 21 243 1.6 3.2 0.00 0.00 0.00 95 1015.4
20260901102504 21 243 0.0 0.0 0.00 0.00 0.00 95 1015.4
20260901102004 21 243 0.0 0.0 0.00 0.00 0.00 95 1015.3
20260901101004 22 243 1.6 3.2 0.00 0.00 0.00 95 1015.2
20260901095005 22 243 0.0 1.6 0.00 0.00 0.00 95 1015.4
20260901094004 22 243 0.0 3.2 0.00 0.00 0.00 95 1015.2
20260901093504 22 243 0.0 1.6 0.00 0.00 0.00 95 1015.1
20260901092004 22 243 1.6 1.6 0.00 0.00 0.00 95 1015.2
20260901090504 22 243 1.6 3.2 0.00 0.00 0.00 94 1015.3
20260901085504 22 243 3.2 3.2 0.00 0.00 0.00 95 1015.3
20260901085004 22 243 3.2 3.2 0.00 0.00 0.00 95 1015.3
20260901084504 22 243 1.6 3.2 0.00 0.00 0.00 95 1015.2
20260901083504 22 243 0.0 0.0 0.00 0.00 0.00 94 1015.2
20260901082504 22 243 0.0 0.0 0.00 0.00 0.00 94 1015.1
20260901080004 23 243 0.0 1.6 0.00 0.00 0.00 94 1015.4
20260901073004 22 242 1.6 3.2 0.00 0.00 0.00 94 1015.4
20260901072504 23 243 1.6 1.6 0.00 0.00 0.00 94 1015.3
20260901071503 23 243 1.6 1.6 0.00 0.00 0.00 94 1015.3
20260901070504 23 243 1.6 1.6 0.00 0.00 0.00 94 1015.3
20260901070004 23 243 1.6 1.6 0.00 0.00 0.00 93 1015.3
20260901064504 23 242 3.2 3.2 0.00 0.00 0.00 93 1015.3
20260901064004 23 243 1.6 3.2 0.00 0.00 0.00 93 1015.3
20260901063504 23 243 1.6 1.6 0.00 0.00 0.00 93 1015.3
20260901062504 23 243 1.6 3.2 0.00 0.00 0.00 93 1015.4
20260901062003 23 243 1.6 3.2 0.00 0.00 0.00 93 1015.5
20260901061504 23 192 1.6 3.2 0.00 0.00 0.00 93 1015.5
20260901055504 23 187 3.2 4.8 0.00 0.00 0.00 93 1015.3
20260901054504 23 187 3.2 4.8 0.00 0.00 0.00 93 1015.3
20260901054004 23 187 3.2 4.8 0.00 0.00 0.00 93 1015.3
20260901053504 23 187 3.2 4.8 0.00 0.00 0.00 93 1015.1
20260901053004 23 187 3.2 4.8 0.00 0.00 0.00 93 1015.0
20260901052504 23 187 3.2 4.8 0.00 0.00 0.00 93 1015.0
20260901052004 23 217 3.2 4.8 0.00 0.00 0.00 93 1015.1
20260901051504 23 216 1.6 3.2 0.00 0.00 0.00 93 1015.2
20260901050504 24 217 1.6 1.6 0.00 0.00 0.00 92 1015.1
20260901050004 24 217 1.6 3.2 0.00 0.00 0.00 92 1014.9
20260901045504 24 217 1.6 3.2 0.00 0.00 0.00 92 1014.9
20260901045004 24 169 1.6 1.6 0.00 0.00 0.00 93 1014.9
20260901043006 23 169 0.0 1.6 0.00 0.00 0.00 93 1014.8
20260901042006 23 169 1.6 3.2 0.00 0.00 0.00 93 1014.8
20260901040506 24 160 3.2 3.2 0.00 0.00 0.00 92 1014.8
20260901040006 24 158 1.6 4.8 0.00 0.00 0.00 92 1014.7
20260901035506 24 158 3.2 4.8 0.00 0.00 0.00 93 1014.7
20260901034006 24 147 1.6 3.2 0.00 0.00 0.00 93 1014.7
20260901033506 24 147 1.6 3.2 0.00 0.00 0.00 93 1014.8
20260901032506 24 147 1.6 1.6 0.00 0.00 0.00 93 1014.9
20260901032006 25 147 0.0 3.2 0.00 0.00 0.00 93 1015.0
20260901031505 25 147 1.6 3.2 0.00 0.00 0.00 92 1014.9
20260901030506 24 171 0.0 1.6 0.00 0.00 0.00 92 1015.1
20260901030006 24 171 1.6 3.2 0.00 0.00 0.00 92 1015.2
20260901025005 25 171 0.0 1.6 0.00 0.00 0.00 91 1014.9
20260901024506 25 171 1.6 1.6 0.00 0.00 0.00 91 1014.9
20260901023506 25 159 3.2 4.8 0.00 0.00 0.00 92 1014.7
20260901023005 25 134 4.8 4.8 0.00 0.00 0.00 92 1014.7
20260901021506 24 161 3.2 3.2 0.00 0.00 0.00 92 1014.8
20260901021005 24 161 1.6 1.6 0.00 0.00 0.00 92 1014.9
20260901015506 24 161 3.2 3.2 0.00 0.00 0.00 91 1014.6
20260901015006 25 190 1.6 3.2 0.00 0.00 0.00 90 1014.6
20260901014505 25 190 1.6 1.6 0.00 0.00 0.00 89 1014.6
20260901014005 25 190 0.0 3.2 0.00 0.00 0.00 88 1014.6
20260901013506 26 190 1.6 3.2 0.00 0.00 0.00 86 1014.6
20260901012505 26 190 0.0 3.2 0.00 0.00 0.00 87 1014.5
20260901012006 26 190 0.0 1.6 0.00 0.00 0.00 85 1014.4
20260901011505 26 190 1.6 1.6 0.00 0.00 0.00 85 1014.3
20260901011005 26 190 0.0 1.6 0.00 0.00 0.00 83 1014.2
20260901010006 26 190 1.6 3.2 0.00 0.00 0.00 83 1014.2
20260901005006 27 199 3.2 4.8 0.00 0.00 0.00 83 1014.0
20260901004505 27 173 4.8 8.0 0.00 0.00 0.00 82 1014.1
20260901002506 28 230 3.2 4.8 0.00 0.00 0.00 79 1014.1
20260901001006 28 197 4.8 4.8 0.00 0.00 0.00 77 1013.9
20260831233505 30 194 8.0 12.9 0.00 0.00 0.00 74 1013.9
20260831233006 30 191 8.0 11.3 0.00 0.00 0.00 74 1014.0
20260831231505 30 192 9.7 14.5 0.00 0.00 0.00 73 1013.9
20260831231005 30 188 4.8 11.3 0.00 0.00 0.00 72 1013.8
20260831225006 30 188 4.8 16.1 0.00 0.00 0.00 71 1013.8
20260831224505 30 195 9.7 16.1 0.00 0.00 0.00 71 1013.7
20260831224005 31 197 8.0 14.5 0.00 0.00 0.00 71 1013.7
20260831223505 31 189 4.8 14.5 0.00 0.00 0.00 71 1013.6
20260831223005 31 186 9.7 14.5 0.00 0.00 0.00 72 1013.6
20260831222005 30 193 6.4 14.5 0.00 0.00 0.00 71 1013.6
20260831220005 31 177 9.7 19.3 0.00 0.00 0.00 69 1013.4
20260831215505 31 187 11.3 19.3 0.00 0.00 0.00 68 1013.3
20260831213005 31 163 14.5 19.3 0.00 0.00 0.00 70 1013.4
20260831212005 31 169 8.0 11.3 0.00 0.00 0.00 71 1013.6
20260831211005 31 193 8.0 12.9 0.00 0.00 0.00 69 1013.7
20260831210505 31 211 4.8 9.7 0.00 0.00 0.00 69 1013.7
20260831205505 32 190 6.4 14.5 0.00 0.00 0.00 65 1013.8
20260831204504 32 196 4.8 8.0 0.00 0.03 0.00 68 1013.9
20260831203505 31 194 3.2 8.0 0.00 0.05 0.00 68 1013.7
20260831203005 30 169 4.8 9.7 0.00 0.08 0.00 69 1013.7
20260831202505 31 189 8.0 12.9 0.00 0.13 0.00 67 1014.0
20260831201505 32 171 4.8 14.5 0.00 0.28 0.00 66 1013.6
20260831201005 32 198 8.0 11.3 0.00 0.30 0.00 66 1013.6
20260831200505 32 190 8.0 12.9 0.00 0.33 0.00 65 1013.6
20260831200005 32 237 3.2 9.7 0.00 0.36 0.00 65 1013.9
20260831195505 32 225 4.8 11.3 0.00 0.41 0.00 65 1014.0
20260831194005 31 186 9.7 12.9 0.00 0.48 0.00 65 1013.9
20260831192505 32 203 8.0 12.9 0.00 0.58 0.00 65 1014.1
20260831191005 31 211 6.4 11.3 0.00 0.61 0.00 67 1014.2
20260831190005 32 181 8.0 12.9 0.00 0.61 0.00 65 1014.1
20260831185505 31 208 8.0 12.9 0.00 0.61 0.00 66 1014.1
20260831184504 31 235 3.2 9.7 0.00 0.61 0.00 65 1014.0
20260831183505 31 235 4.8 9.7 0.00 0.61 0.00 67 1013.9
20260831182005 30 189 6.4 9.7 0.00 0.61 0.00 68 1014.2
20260831181005 31 215 3.2 9.7 0.00 0.61 0.00 66 1014.2
20260831180005 31 190 6.4 9.7 0.00 0.64 0.00 64 1014.0
20260831175504 32 230 4.8 12.9 0.00 0.64 0.00 65 1014.0
20260831175005 31 283 11.3 16.1 0.00 0.64 0.00 63 1014.4
20260831173505 31 248 11.3 19.3 0.00 0.66 0.00 64 1014.6
20260831173005 31 264 12.9 19.3 0.00 0.69 0.00 65 1014.3
20260831172004 30 252 9.7 19.3 0.00 0.71 0.00 65 1014.5
20260831171505 30 242 11.3 19.3 0.00 0.71 0.00 66 1014.5
20260831170004 30 209 9.7 16.1 0.00 0.76 0.00 66 1014.5
20260831165005 30 217 9.7 14.5 0.00 0.81 0.00 65 1014.6
20260831164505 30 217 8.0 20.9 0.00 0.81 0.00 66 1014.7
20260831164004 30 228 12.9 19.3 0.00 0.84 0.00 67 1014.7
20260831163005 30 226 14.5 20.9 0.00 0.84 0.00 66 1014.7
20260831162504 29 236 9.7 24.1 0.00 0.84 0.00 67 1014.7
20260831161505 30 236 9.7 19.3 0.00 0.84 0.00 68 1014.8
20260831161005 28 224 11.3 20.9 0.00 0.84 0.00 66 1014.7
20260831155005 28 226 11.3 20.9 0.00 0.84 0.00 68 1014.4
20260831154504 28 242 8.0 22.5 0.00 0.84 0.00 69 1014.2
20260831153505 28 217 14.5 25.7 0.00 0.84 0.00 67 1014.2
20260831153004 28 216 12.9 27.4 0.00 0.84 0.00 68 1014.0
20260831152504 28 231 19.3 25.7 0.00 0.84 0.00 66 1014.1
20260831152004 28 213 8.0 22.5 0.00 0.84 0.00 70 1014.1
20260831150504 28 235 9.7 16.1 0.00 0.84 0.00 73 1013.9
20260831145004 27 205 9.7 19.3 0.00 0.84 0.00 72 1013.6
20260831144005 27 209 9.7 16.1 0.00 0.84 0.00 73 1013.7